Lid_Strength_Index
6 6 5 5 5 5 5 5 4 4 3 4 4 2 2 1 1 1 1 1 0 -0 0 0 0 0 1 1 2 1 1 1 2 2 2 2 2 3 3 3 2 2 2
7 6 6 6 6 6 6 6 5 5 4 2 3 3 2 2 1 1 1 1 1 -0 0 1 0 0 0 1 1 1 2 2 2 3 4 5 3 2 2 2 3 2 2
7 7 7 7 7 7 8 7 6 6 5 4 2 4 3 2 2 2 1 1 0 -0 -0 -0 -0 0 0 1 1 1 2 3 2 2 3 6 6 4 2 2 2 2 2
7 7 7 8 8 8 8 8 8 8 7 6 5 3 3 3 3 3 2 1 1 1 0 0 -0 0 0 1 1 1 1 1 3 2 2 2 2 5 6 2 2 2 3
7 8 8 8 8 8 9 9 10 10 9 8 8 6 6 4 5 4 4 3 4 4 5 5 5 2 0 1 1 1 1 1 2 2 2 3 2 2 4 6 4 2 1
8 8 8 8 9 10 10 11 12 12 10 10 10 9 9 9 9 9 8 7 6 6 8 7 7 4 4 4 2 1 1 1 1 1 2 2 3 4 4 5 4 4 2
8 9 9 10 11 11 12 12 12 13 12 11 11 10 11 11 11 11 10 10 9 10 10 9 8 7 6 6 5 4 2 1 1 1 2 1 2 2 2 3 4 4 3
8 9 10 11 12 12 13 13 12 13 13 12 11 11 11 11 11 11 11 11 11 10 10 10 9 8 8 7 6 4 4 3 3 2 2 1 1 1 1 3 4 5 4
9 10 10 11 12 12 14 14 13 14 14 13 13 12 12 13 13 12 11 12 11 11 11 10 10 9 8 8 7 6 6 5 5 5 6 5 4 4 3 1 2 4 6
10 11 12 13 13 14 14 14 14 15 14 14 13 13 13 13 13 13 13 13 12 12 11 11 10 9 9 8 8 7 7 7 7 7 7 7 6 6 6 5 5 4 4
11 11 12 13 13 14 14 15 15 15 15 14 14 13 14 13 13 13 13 13 12 12 11 11 10 10 9 9 8 8 8 9 8 8 8 8 7 7 6 5 7 7 7
10 11 12 13 14 14 15 15 15 15 15 14 14 14 14 14 14 14 14 13 13 12 12 11 11 10 10 9 10 10 10 10 9 9 9 8 7 7 7 8 8 8 7
10 11 12 13 14 14 14 15 15 15 15 14 15 15 15 15 15 14 14 13 13 13 12 12 11 11 10 11 11 11 11 11 10 9 9 9 8 9 9 8 9 8 8
10 11 12 12 12 13 14 15 15 15 15 15 15 15 15 15 14 14 14 14 13 13 13 12 12 11 11 11 11 12 12 11 10 9 9 10 10 10 10 10 9 9 10
9 10 11 11 13 14 15 15 15 15 15 15 15 15 15 14 14 15 14 14 14 13 13 13 12 12 11 12 12 12 13 12 12 11 11 11 11 10 10 10 11 11 11
8 9 9 10 12 13 15 15 15 15 15 15 16 15 15 15 15 15 15 15 14 14 13 13 13 13 12 11 11 12 13 12 13 13 12 12 11 12 10 10 10 11 12
7 8 9 10 12 14 15 15 16 15 16 15 16 16 16 15 15 15 15 15 15 15 14 14 14 14 13 12 12 12 13 13 13 13 13 13 13 12 12 11 11 12 11
7 7 10 12 14 15 15 16 16 16 16 16 16 16 16 16 16 16 16 16 15 15 15 15 14 14 13 12 12 12 13 14 14 14 14 14 14 13 13 13 14 13 13
6 8 10 13 15 16 16 16 16 16 16 17 17 17 17 17 16 16 16 16 16 16 15 15 15 15 14 13 13 13 15 15 15 14 14 14 15 14 13 14 15 15 15
11 12 14 15 16 16 16 16 17 17 18 17 17 17 17 17 17 17 17 16 16 16 15 15 15 15 15 14 14 14 16 16 16 16 15 14 15 14 14 15 16 17 16
15 15 15 16 17 16 16 17 17 18 18 18 19 19 19 18 18 18 17 17 17 17 16 16 16 15 16 17 15 14 16 17 17 17 17 17 15 15 15 15 17 17 16
16 16 17 17 17 17 17 18 19 19 20 20 20 20 20 19 18 19 18 18 18 18 18 17 17 17 17 16 16 15 15 15 18 18 17 17 16 16 16 17 16 16 17
16 17 18 18 18 18 17 19 21 21 22 22 22 21 20 19 19 19 19 19 19 19 19 19 19 19 18 18 16 17 16 16 17 17 16 16 17 17 18 18 18 19 20
17 18 19 20 21 20 19 21 22 22 23 23 22 21 21 21 20 20 20 20 20 21 21 21 21 21 20 20 18 18 18 16 17 17 19 19 19 19 20 21 21 21 21
18 19 20 21 22 22 23 23 23 23 23 22 22 22 21 21 21 20 21 21 20 20 23 25 22 25 25 20 17 17 17 18 17 19 24 24 24 24 23 23 23 22 22
19 19 20 22 23 24 25 25 25 25 24 23 23 23 23 22 22 22 22 20 19 18 18 18 19 21 18 17 17 16 15 15 16 27 27 25 24 24 24 25 25 24 23